Meteo Giornale » Osservazioni meteo Indonesia » Halim Perdanakus
ore: 12:30 - Osservazioni Meteo Halim Perdanakus
Lat. 6° 15' S Lon. 106° 53' E Alt. 25 metri s.l.m.
33 °C
Nuvoloso
Temp. 24 Ore
26 °C
35 °C
Nord/Nord-Est
11.1 Km/h
Dew point 21 °C
Umidità 49 %
Visibilità 6 Km
Il sole sorge alle ore 05:52
Il sole tramonta alle ore 17:52
| Data e Ora | Cielo e Fenomeni | T °C | DP °C | Um. % | Pres. hPa | Vis. km | Vento km/h | |
|---|---|---|---|---|---|---|---|---|
| Oggi h: 12:30 | Nuvoloso | 33 | 21 | 49 | 1012 | 6 | N/NE 11.1 | |
| Oggi h: 12:00 | Nuvoloso | 34 | 21 | 46 | 1013 | 6 | N/NE 13 | |
| Oggi h: 11:30 | Nuvoloso | 32 | 21 | 52 | 1013 | 6 | S/SO 9.3 | |
| Oggi h: 11:00 | Nuvoloso | 32 | 22 | 55 | 1013 | 6 | NE 9.3 | |
| Oggi h: 10:30 | Nuvoloso | 32 | 22 | 55 | 1014 | 6 | S/SE 11.1 | |
| Oggi h: 10:00 | Nuvoloso | 32 | 23 | 59 | 1014 | 6 | E/NE 9.3 | |
| Oggi h: 09:30 | Poco Nuvoloso | 31 | 22 | 58 | 1015 | 6 | E/NE 18.5 | |
| Oggi h: 09:00 | Foschia | 31 | 23 | 62 | 1015 | 5 | E 16.7 | |
| Oggi h: 08:30 | Foschia | 30 | 23 | 66 | 1015 | 5 | E/NE 13 | |
| Oggi h: 08:00 | Foschia | 29 | 23 | 70 | 1015 | 5 | E/NE 13 | |
| Oggi h: 07:30 | Foschia | 28 | 23 | 74 | 1014 | 5 | E 11.1 | |
| Oggi h: 07:00 | Nuvoloso | 28 | 23 | 74 | 1014 | 6 | E 11.1 | |
| Oggi h: 06:30 | Nuvoloso | 27 | 24 | 83 | 1014 | 6 | N 5.5 | |
| Oggi h: 06:00 | Poco Nuvoloso | 27 | 24 | 83 | 1013 | 7 | E 11.1 | |
| Oggi h: 05:30 | Poco Nuvoloso | 27 | 24 | 83 | 1013 | 7 | E/SE 13 | |
| Oggi h: 05:00 | Poco Nuvoloso | 27 | 24 | 83 | 1013 | 7 | E/NE 13 | |
| Oggi h: 04:30 | Poco Nuvoloso | 26 | 24 | 88 | 1013 | 7 | N 5.5 | |
| Oggi h: 04:00 | Sereno | 26 | 24 | 88 | 1013 | 7 | E/SE 7.4 | |
| Oggi h: 03:30 | Sereno | 27 | 24 | 83 | 1013 | 8 | SE 7.4 | |
| Oggi h: 03:00 | Sereno | 27 | 24 | 83 | 1013 | 8 | SE 9.3 | |
| Oggi h: 02:30 | Sereno | 27 | 24 | 83 | 1013 | 8 | E/SE 7.4 | |
| Oggi h: 02:00 | Sereno | 28 | 24 | 78 | 1013 | 10 | S/SE 7.4 | |
| Oggi h: 01:30 | Sereno | 28 | 26 | 88 | 1013 | 10 | E/SE 7.4 | |
| Oggi h: 01:00 | Sereno | 28 | 26 | 88 | 1013 | 10 | E 7.4 | |
| Oggi h: 00:30 | Nuvoloso | 28 | 24 | 78 | 1013 | 8 | E/NE 11.1 | |
| Oggi h: 00:00 | Nuvoloso | 28 | 24 | 78 | 1014 | 8 | NE 11.1 | |
| Ieri h: 23:30 | Nuvoloso | 28 | 24 | 78 | 1014 | 8 | NE 16.7 | |
| Ieri h: 23:00 | Nuvoloso | 28 | 24 | 78 | 1014 | 8 | NE 18.5 | |
| Ieri h: 22:30 | Poco Nuvoloso | 28 | 24 | 78 | 1014 | 10 | E/NE 18.5 | |
| Ieri h: 22:00 | Poco Nuvoloso | 28 | 24 | 78 | 1014 | 10 | E/NE 14.8 | |
| Ieri h: 21:30 | Poco Nuvoloso | 29 | 24 | 74 | 1014 | 10 | NE 18.5 | |
| Ieri h: 21:00 | Poco Nuvoloso | 29 | 23 | 70 | 1014 | 10 | E/NE 14.8 | |
| Ieri h: 20:30 | Poco Nuvoloso | 29 | 23 | 70 | 1014 | 10 | E 18.5 | |
| Ieri h: 20:00 | Poco Nuvoloso | 29 | 23 | 70 | 1013 | 10 | E/NE 20.3 | |
| Ieri h: 19:30 | Nuvoloso | 29 | 23 | 70 | 1013 | 10 | E/NE 18.5 | |
| Ieri h: 19:00 | Poco Nuvoloso | 29 | 23 | 70 | 1012 | 10 | NE 18.5 | |
| Ieri h: 18:30 | Sereno | 29 | 23 | 70 | 1012 | 10 | E/NE 22.2 | |
| Ieri h: 18:00 | Poco Nuvoloso | 30 | 23 | 66 | 1012 | 8 | NE 16.7 | |
| Ieri h: 17:30 | Nuvoloso | 30 | 23 | 66 | 1011 | 8 | NE 16.7 | |
| Ieri h: 17:00 | Poco Nuvoloso | 32 | 23 | 59 | 1011 | 8 | NE 24 | |
| Ieri h: 16:30 | Poco Nuvoloso | 32 | 23 | 59 | 1011 | 8 | E/NE 27.8 | |
| Ieri h: 16:00 | Sereno | 32 | 23 | 59 | 1010 | 8 | NE 25.9 | |
| Ieri h: 15:30 | Poco Nuvoloso | 33 | 23 | 55 | 1010 | 8 | NE 22.2 | |
| Ieri h: 15:00 | Poco Nuvoloso | 34 | 23 | 52 | 1010 | 8 | NE 27.8 | |
| Ieri h: 14:30 | Poco Nuvoloso | 35 | 22 | 47 | 1010 | 7 | NE 24 | |
| Ieri h: 14:00 | Poco Nuvoloso | 35 | 22 | 47 | 1011 | 7 | NE 20.3 | |



